Вернуться в каталог

NIGERIASAT 2

АктивенНаукаSSO
NORAD 37789·PAYLOAD·🇳🇬 Nigeria

Запущен Aug 17, 2011 с Dombarovsky

Loading…

Ближайшие Пролёты (ближайшие 24 часа)

TLE

СвежийSource: Space-Track

Эпоха: Sep 14, 2026, 22:54 UTC

1 37789U 11044B   26257.95470775  .00000207  00000-0  41797-4 0  9991
2 37789  97.8890 232.1919 0029361 192.6319 243.7475 14.70580706803760

Отслеживайте NIGERIASAT 2 в реальном времени с AllMySat

Download on the App Store